This is the latest recevied weather packets stored in our database for station/object N6GPM. If no packets are shown the sender has not sent any weather packets the latest 10 day(s).
| Time | Temp. | Humidity | Pressure | Rain* | Wind** | Luminosity | Snow |
|---|---|---|---|---|---|---|---|
| 1787424934 | 35° C | 19% | 1020 hPa | 0 mm | - | 984 W/m² | - |
| 1787424634 | 35° C | 21% | 1020 hPa | 0 mm | - | 976 W/m² | - |
| 1787424330 | 34.44° C | 22% | 1020.2 hPa | 0 mm | - | 972 W/m² | - |
| 1787424030 | 34.44° C | 23% | 1020.2 hPa | 0 mm | - | 966 W/m² | - |
| 1787423726 | 33.89° C | 22% | 1020.2 hPa | 0 mm | - | 961 W/m² | - |
| 1787423422 | 34.44° C | 23% | 1020.2 hPa | 0 mm | - | 953 W/m² | - |
| 1787423118 | 34.44° C | 22% | 1020.4 hPa | 0 mm | - | 945 W/m² | - |
| 1787422814 | 34.44° C | 25% | 1020.4 hPa | 0 mm | - | 937 W/m² | - |
| 1787422510 | 34.44° C | 25% | 1020.5 hPa | 0 mm | - | 929 W/m² | - |
| 1787422210 | 33.89° C | 27% | 1020.5 hPa | 0 mm | - | 916 W/m² | - |
| 1787421907 | 33.89° C | 26% | 1020.5 hPa | 0 mm | - | 904 W/m² | - |
| 1787421602 | 34.44° C | 27% | 1020.5 hPa | 0 mm | - | 889 W/m² | - |
| 1787421298 | 33.89° C | 28% | 1020.6 hPa | 0 mm | - | 878 W/m² | - |
| 1787420997 | 33.89° C | 29% | 1020.7 hPa | 0 mm | - | 864 W/m² | - |
| 1787420693 | 33.33° C | 31% | 1020.6 hPa | 0 mm | - | 850 W/m² | - |
| 1787420389 | 33.33° C | 32% | 1020.7 hPa | 0 mm | - | 837 W/m² | - |
| 1787420086 | 33.33° C | 33% | 1020.4 hPa | 0 mm | - | 828 W/m² | - |
| 1787419781 | 33.33° C | 33% | 1020.5 hPa | 0 mm | - | 807 W/m² | - |
| 1787419477 | 32.78° C | 34% | 1020.6 hPa | 0 mm | - | 793 W/m² | - |
| 1787419172 | 33.33° C | 32% | 1020.5 hPa | 0 mm | - | 777 W/m² | - |
| 1787418868 | 33.33° C | 31% | 1020.4 hPa | 0 mm | - | 765 W/m² | - |
| 1787418564 | 32.78° C | 31% | 1020.5 hPa | 0 mm | - | 749 W/m² | - |
| 1787418260 | 33.33° C | 30% | 1020.7 hPa | 0 mm | - | 733 W/m² | - |
| 1787417955 | 33.33° C | 30% | 1020.6 hPa | 0 mm | - | 717 W/m² | - |
| 1787417652 | 32.78° C | 30% | 1020.7 hPa | 0 mm | - | 700 W/m² | - |
* Rain latest hour (hover to see other rain measurements)
** Current wind speed in m/s (hover to see current wind gust speed)